Welcome to the New NWS' Forecast!
Most changes are behind the scenes, but click here for differences you might notice.
Latest weather observations around

West Memphis, West Memphis Municipal Airport (KAWM)

Using English Units (Switch to International System of Units)
Date/ Time (CDT) Wind (mph) Vis. (mi) Weather Sky Cond. Temp (°F) Rel. Humidity Wind Chill (°F) Heat Index (°F) Pressure Precip. (in)
Air Dwpt 6 hour Altimeter (inHg) Sea level (inHg) 1 hr 3 hr 6 hr
Max Min
Apr 28 05:53 NE 3 10 Mostly Clear FEW120 57 56     96%     29.8 29.8      
Apr 28 04:53 E 3 10 Partly Cloudy SCT110 56 55     97%     29.8 29.79      
Apr 28 03:53 SE 7 10 Cloudy OVC110 59 55     87%     29.79 29.78      
Apr 28 02:53 ESE 7 10 Clear CLR 58 54     87%     29.78 29.77      
Apr 28 01:53 SSE 5 10 Clear CLR 55 54     96%     29.81 29.8      
Apr 28 00:53 SSE 7 10 Clear CLR 56 54     93%     29.81 29.81      
Apr 27 23:53 SE 6 10 Clear CLR 56 54     93%     29.8 29.79      
Apr 27 22:53 Calm 10 Clear CLR 58 54     87%     29.8 29.8      
Apr 27 21:53 ESE 7 10 Clear CLR 61 53     75%     29.8 29.79      
Apr 27 20:53 Calm 10 Clear CLR 58 56     93%     29.8 29.8      
Apr 27 19:53 S 5 10 Clear CLR 61 56     83%     29.79 29.79      
Apr 27 18:53 SSW 3 10 Clear CLR 64 52     65%     29.8 29.79      
Apr 27 17:53 S 7 10 Clear CLR 66 51     59%     29.8 29.79      
Apr 27 16:53 SE 8 10 Clear CLR 66 53     63%     29.79 29.79      
Apr 27 15:53   10 Mostly Clear FEW033 65 53     65%     29.81 29.81      
Apr 27 14:53 5 10 Clear CLR 64 50     60%     29.82 29.82      
Apr 27 13:53 Calm 10 Partly Cloudy SCT031 62 50     65%     29.84 29.84      
Apr 27 13:17 WSW 8 10 Partly Cloudy SCT029 62 50     65%     29.85        
Apr 27 12:53 S 5 10 Mostly Cloudy BKN029 60 49     67%     29.85 29.84      
Apr 27 12:37   10 Mostly Cloudy BKN028 60 50     69%     29.85        
Apr 27 11:53 Calm 10 Mostly Clear FEW026 58 47     67%     29.85 29.84      
Apr 27 11:18 S 6 10 Partly Cloudy SCT025 57 49     74%     29.84        
Apr 27 10:53 S 6 10 Mostly Cloudy BKN023 BKN028 55 48     77%     29.84 29.83      
Apr 27 09:53 Calm 10 Cloudy OVC022 54 47     77%     29.83 29.82      
Apr 27 08:53 NNW 3 10 Mostly Cloudy BKN021 BKN028 53 47     80%     29.81 29.8      
Apr 27 07:53 3 10 Cloudy OVC022 52 47     83%     29.8 29.79      
Apr 27 06:53 NW 5 10 Cloudy OVC019 51 47     86%     29.76 29.76     0
Apr 27 05:53 3 10 Cloudy OVC015 51 48     89%     29.74 29.74      
Apr 27 04:53 6 10 Cloudy OVC017 51 48     89%     29.72 29.71      
Apr 27 03:53 NW 9 10 Cloudy BKN017 OVC027 51 48     89%     29.69 29.68   0  
Apr 27 03:35 NW 8 10 Cloudy FEW010 OVC015 52 49     89%     29.68        
Apr 27 02:53 7 9 Cloudy BKN011 OVC016 53 52     96%     29.64 29.63 0    
Apr 27 02:12 7 10 Cloudy OVC010 54 52     93%     29.65   0    
Apr 27 01:53 NNW 8 5 Light Rain and Fog/Mist OVC009 54 54     100%     29.65 29.64 0    
Apr 27 01:44 NNW 9 8 Light Rain OVC009 54 54     100%     29.65   0    
Apr 27 01:14 NW 9 10 Cloudy SCT008 OVC014 55 55     100%     29.63        
Apr 27 00:53 NW 8 10 Cloudy OVC008 57 57     100%     29.63 29.62 0   1
Apr 27 00:11 WSW 8 3 Light Rain and Fog/Mist BKN005 BKN012 OVC019 62 62     100%     29.6   0    
Apr 27 00:03 WSW 8 1.75 Heavy Rain and Fog/Mist BKN007 BKN013 OVC020 62 62     100%     29.59   0    
Apr 26 23:53 SSW 10 10 Light Rain BKN007 OVC016 62 62     100%     29.58 29.57 0    
Apr 26 23:31 SSW 7 10 Cloudy BKN007 BKN037 OVC045 62 62     100%     29.57        
Apr 26 22:53 S 11 10 Mostly Cloudy FEW007 BKN048 62 62     100%     29.54 29.53 0    
Apr 26 22:43 S 15 10 Partly Cloudy FEW008 FEW050 SCT120 62 62     100%     29.56   0    
Apr 26 22:08 SSE 14 10 Light Rain SCT110 62 62     100%     29.52   0    
Apr 26 21:53   7 Light Rain OVC110 62 62     100%         0 1  
Apr 26 20:53 SSE 7 3 Rain and Fog/Mist SCT070 BKN085 OVC100 62 62     100%     29.54 29.52 0    
Apr 26 20:26 S 8 4 Thunderstorms and Rain and Fog/Mist SCT070 BKN085 OVC100 61 61     100%     29.54   0    
Apr 26 20:14 S 8 2.5 Thunderstorms and Rain and Fog/Mist FEW050 BKN070 OVC090 61 61     100%     29.54   0    
Apr 26 20:08 S 6 3 Rain and Fog/Mist FEW050 BKN080 OVC095 61 61     100%     29.54   0    
Apr 26 20:05 S 6 2.5 Thunderstorms and Rain and Fog/Mist SCT050 BKN080 OVC095 61 61     100%     29.54   0    
Apr 26 19:53 S 8 4 Thunderstorms and Rain and Fog/Mist BKN048 BKN070 OVC085 61 61     100%     29.53 29.52 1    
Apr 26 19:48 5 3 Rain and Fog/Mist BKN043 BKN070 OVC085 61 61     100%     29.51   1    
Apr 26 19:47 5 3 Thunderstorms and Heavy Rain and Fog/Mist BKN043 BKN070 OVC085 61 61     100%     29.5   1    
Apr 26 19:25 Calm 1 Thunderstorms and Heavy Rain and Fog/Mist BKN031 BKN037 OVC050 60 60     100%     29.53   0    
Apr 26 19:21 NNE 5 0.75 Thunderstorms and Heavy Rain and Fog/Mist BKN026 BKN037 OVC049 60 60     100%     29.51   0    
Apr 26 19:14 5 0.75 Heavy Rain and Fog/Mist SCT020 BKN037 OVC049 60 60     100%     29.53   0    
Apr 26 19:07 7 1.75 Heavy Rain and Fog/Mist FEW030 BKN037 OVC049 61 61     100%     29.54   0    
Apr 26 18:53 NNW 9 10 Cloudy OVC039 63 59     87%     29.53 29.52     0
Apr 26 17:53 SSE 16 10 Cloudy FEW050 OVC075 75 64     69%   75 29.45 29.44      
Apr 26 16:53 SSE 22 10 Cloudy and Windy FEW039 SCT060 OVC085 77 64     64%   77 29.47 29.46      
Apr 26 15:53   10 Mostly Cloudy FEW043 BKN055 78 65     64%   79 29.49 29.48   0  
Apr 26 14:53 S 24 10 Cloudy and Windy SCT036 SCT043 OVC050 77 65     66%   78 29.54 29.53      
Apr 26 13:53 S 22 10 Cloudy and Windy BKN037 OVC049 77 65     66%   78 29.57 29.56 0    
Apr 26 12:53 S 18 7 Light Rain BKN036 OVC044 72 67     84%   73 29.62 29.6 0   0
Apr 26 11:53 S 16 9 Light Rain BKN041 OVC050 72 65     79%   73 29.63 29.62 0    
Apr 26 10:53 S 16 10 Cloudy OVC045 73 65     76%   74 29.63 29.62      
Apr 26 09:53 S 21 10 Mostly Clear and Windy FEW050 73 65     76%   74 29.62 29.61      
Apr 26 08:53 S 16 10 Mostly Clear FEW017 71 64     79%   72 29.62 29.61      
Apr 26 07:53 S 17 10 Clear CLR 67 62     84%     29.63 29.62      
Apr 26 06:53 S 13 10 Mostly Clear FEW050 65 61     87%     29.64 29.63      
Apr 26 05:53 S 10 10 Mostly Cloudy BKN043 65 60     84%     29.64 29.63      
Apr 26 04:53 S 9 10 Clear CLR 65 59     81%     29.62 29.61      
Apr 26 03:53 S 15 10 Clear CLR 65 58     78%     29.59 29.58      
Apr 26 02:53 S 13 10 Clear CLR 65 58     78%     29.59 29.57      
Apr 26 01:53 SSW 11 10 Cloudy OVC038 69 57     65%     29.6 29.58      
Apr 26 00:53 S 16 10 Cloudy OVC044 71 57     61%   71 29.61 29.59      
Apr 25 23:53 S 10 10 Clear CLR 67 56     68%     29.6 29.59      
Apr 25 22:53 S 11 10 Clear CLR 67 56     68%     29.6 29.59      
Apr 25 21:53 S 14 10 Clear CLR 69 56     63%     29.6 29.59      
Apr 25 20:53 S 13 10 Clear CLR 70 56     61%     29.58 29.57      
Apr 25 19:53 S 9 10 Clear CLR 71 56     59%   71 29.58 29.57      
Apr 25 18:53 S 18 10 Clear CLR 76 55     48%   75 29.58 29.57      
Apr 25 17:53 S 17 10 Clear   78 55     45%   78 29.59 29.57      
Apr 25 16:53 S 22 10 Clear and Windy CLR 79 53     41%   78 29.59 29.58      
Apr 25 15:53 S 21 10 Clear and Windy CLR 80 55     42%   80 29.62 29.61      
Apr 25 14:53 S 18 10 Clear CLR 79 53     41%   78 29.64 29.63      
Apr 25 13:53 S 23 10 Clear and Windy CLR 78 55     45%   78 29.67 29.65      
Apr 25 12:53 S 17 10 Clear CLR 76 56     50%   76 29.69 29.67      
Apr 25 11:53 SSW 11 10 Clear CLR 74 55     52%   73 29.71 29.7      
Apr 25 09:53 S 11 10 Clear CLR 68 55     63%     29.74 29.73      
Apr 25 08:53 S 10 10 Clear CLR 63 58     84%     29.75 29.74      
Apr 25 07:53 S 8 10 Clear   59 57     93%     29.75 29.74      
Apr 25 06:53 SSE 7 7 Clear   54 54     100%     29.74 29.73      
Apr 25 05:53 SSE 7 9 Clear CLR 54 54     100%     29.73 29.72      
Apr 25 04:53 SSE 6 9 Clear CLR 54 54     100%     29.73 29.72      
Apr 25 03:53 SSE 7 10 Clear CLR 55 55     100%     29.74 29.73      
Apr 25 02:53 S 3 10 Clear CLR 55 55     100%     29.74 29.73      
Apr 25 01:53 SSE 6 10 Clear CLR 56 56     100%     29.76 29.75      
Apr 25 00:53 SSE 7 10 Clear CLR 57 56     96%     29.76 29.75      
Apr 24 23:53 SSE 5 10 Clear CLR 58 56     93%     29.75 29.74      
Apr 24 22:53 SE 3 10 Clear CLR 60 58     93%     29.76 29.75      
Apr 24 21:53 SE 3 10 Clear CLR 61 59     93%     29.75 29.74      
Apr 24 20:53 Calm 10 Clear CLR 62 58     86%     29.75 29.74      
Apr 24 19:53 Calm 10 Clear CLR 63 59     87%     29.74 29.73      
Apr 24 18:53 ENE 5 10 Clear CLR 70 58     66%     29.73 29.72      
Apr 24 17:53 3 10 Clear CLR 73 56     55%   73 29.74 29.73      
Apr 24 16:53 NE 3 10 Clear CLR 74 56     53%   74 29.76 29.76      
Apr 24 15:53 3 10 Clear CLR 73 55     53%   73 29.79 29.78      
Apr 24 14:53 Calm 10 Clear CLR 71 55     57%   71 29.82 29.81      
Apr 24 13:53 N 8 10 Clear CLR 71 55     57%   71 29.85 29.84      
Apr 24 12:53 N 8 10 Clear CLR 70 53     55%     29.88 29.87      
Apr 24 11:53 NNW 8 10 Clear CLR 66 49     54%     29.91 29.9      
Apr 24 10:53 7 10 Clear CLR 64 51     63%     29.92 29.91      
Apr 24 09:53 NNE 8 10 Clear CLR 61 48     62%     29.91 29.91      
Apr 24 08:53 N 10 10 Clear CLR 57 45     64%     29.91 29.91      
Apr 24 07:53 NNW 5 10 Clear CLR 52 46     80%     29.91 29.9      
Apr 24 06:53 NW 6 10 Clear CLR 49 46     90% 46   29.9 29.9      
Apr 24 05:53 NNW 7 10 Clear CLR 48 46     93% 45   29.88 29.87      
Apr 24 04:53 N 5 10 Clear CLR 49 45     86% 47   29.87 29.86      
Apr 24 03:53 N 6 10 Clear CLR 50 45     83% 48   29.86 29.86      
Apr 24 02:53 N 6 10 Clear CLR 49 46     90% 46   29.86 29.86      
Apr 24 01:53 NE 3 10 Clear CLR 49 47     93% 48   29.86 29.86      
Apr 24 00:53 NW 3 10 Clear CLR 53 46     77%     29.88 29.87      
Apr 23 23:53 NW 3 10 Clear CLR 53 49     86%     29.91 29.9      
Apr 23 22:53 NW 6 10 Clear CLR 55 48     77%     29.92 29.91      
Apr 23 21:53 NW 5 10 Clear CLR 54 52     93%     29.93 29.93      
Apr 23 20:53 Calm 10 Clear CLR 54 53     97%     29.94 29.93      
Apr 23 19:53 Calm 10 Clear CLR 55 54     96%     29.92 29.92      
Apr 23 18:53 Calm 10 Cloudy OVC070 60 54     80%     29.92 29.91 0   0
Apr 23 17:53 Calm 10 Light Rain BKN050 OVC060 60 54     80%     29.93 29.93 0    
Apr 23 16:53 5 10 Cloudy OVC045 59 52     78%     29.93 29.92 0    
Apr 23 15:53 N 11 10 Cloudy OVC046 61 49     64%     29.93 29.92 0 0  
Apr 23 14:53 N 11 10 Cloudy FEW035 OVC044 61 50     67%     29.93 29.92      
Apr 23 13:53 NNE 14 10 Cloudy OVC045 60 48     64%     29.93 29.92      
Apr 23 12:53 N 17 10 Mostly Cloudy FEW030 BKN046 BKN070 60 48     64%     29.94 29.93      
Apr 23 11:53 N 14 10 Cloudy FEW029 OVC041 56 47     72%     29.96 29.96      
Apr 23 10:53 N 13 10 Cloudy OVC044 54 46     74%     29.97 29.96      
Apr 23 09:53 N 13 10 Cloudy OVC034 52 45     77%     29.97 29.96      
Apr 23 09:18 N 13 10 Cloudy OVC033 52 46     80%     29.96        
Apr 23 08:53 N 13 10 Cloudy OVC029 52 46     80%     29.96 29.96      
Apr 23 08:11 N 9 10 Cloudy OVC031 51 48     89%     29.96        
Apr 23 07:53 N 10 10 Cloudy OVC029 51 48     89%     29.95 29.95      
Apr 23 06:53 N 11 10 Cloudy FEW013 OVC027 50 49     96% 46   29.94 29.94     0
Apr 23 06:20 N 11 9 Cloudy FEW011 BKN028 OVC038 50 49     96% 46   29.93        
Apr 23 05:53 N 9 10 Cloudy SCT011 OVC040 50 49     96% 46   29.92 29.91 0    
Apr 23 04:53 NNW 7 10 Light Rain OVC046 50 50     100% 47   29.9 29.9 0    
Apr 23 03:53 N 11 9 Cloudy SCT012 SCT019 OVC038 51 50     96%     29.91 29.91 0 0  
Apr 23 03:30 N 9 7 Cloudy BKN011 OVC014 51 50     96%     29.91   0    
Apr 23 02:53 N 11 5 Light Rain and Fog/Mist OVC007 50 50     100% 46   29.91 29.91 0    
Apr 23 01:53 N 11 4 Fog/Mist OVC007 50 50     100% 46   29.92 29.92 0    
Apr 23 01:44 N 13 3 Light Rain and Fog/Mist OVC005 50 50     100% 45   29.92   0    
Apr 23 00:53 N 10 2.5 Light Rain and Fog/Mist OVC005 50 50     100% 46   29.94 29.94 0   0
Apr 23 00:08 N 9 2.5 Light Rain and Fog/Mist OVC006 50 50     100% 46   29.94   0    
Apr 22 23:53 N 10 3 Fog/Mist OVC006 50 50     100% 46   29.94 29.94      
Apr 22 22:53 N 11 3 Fog/Mist OVC005 51 51     100%     29.95 29.94 0    
Apr 22 21:53 N 9 3 Light Rain and Fog/Mist OVC005 51 51     100%     29.96 29.96 0 0  
Apr 22 21:34 N 11 2.5 Light Rain and Fog/Mist BKN005 OVC010 52 52     100%     29.95   0    
Apr 22 20:53 N 9 6 Fog/Mist BKN007 OVC012 52 52     100%     29.95 29.95      
Apr 22 19:53 N 9 4 Fog/Mist OVC007 52 52     100%     29.94 29.93      
Apr 22 19:45 N 11 4 Fog/Mist BKN007 OVC018 52 52     100%     29.94        
Apr 22 18:53 N 10 2.5 Fog/Mist BKN008 OVC013 52 52     100%     29.92 29.92     0
Apr 22 17:53 NNW 9 4 Fog/Mist OVC007 53 53     100%     29.91 29.91      
Apr 22 16:53 N 13 7 Cloudy OVC007 53 52     96%     29.89 29.89      
Apr 22 15:53 N 13 4 Fog/Mist OVC007 53 53     100%     29.88 29.88   0  
Apr 22 14:53 N 13 7 Cloudy OVC006 54 54     100%     29.89 29.88      
Apr 22 13:53 N 13 5 Fog/Mist OVC005 53 53     100%     29.89 29.89 0    
Apr 22 12:53 N 13 3 Light Rain and Fog/Mist OVC005 54 54     100%     29.88 29.88 0   0
Apr 22 12:44 N 13 2.5 Light Rain and Fog/Mist OVC006 54 54     100%     29.88   0    
Apr 22 12:28 N 15 1.75 Light Rain and Fog/Mist OVC006 53 53     100%     29.89   0    
Apr 22 12:26 N 15 3 Light Rain and Fog/Mist OVC006 54 54     100%     29.89   0    
Apr 22 12:19 N 16 2.5 Light Rain and Fog/Mist OVC006 54 54     100%     29.88   0    
Apr 22 11:57 N 14 1.75 Rain and Fog/Mist OVC006 54 54     100%     29.89   0    
Apr 22 11:53 NNE 16 4 Light Rain and Fog/Mist BKN006 OVC010 54 54     100%     29.88 29.88 0    
Apr 22 11:07 NNE 13 4 Light Rain and Fog/Mist OVC006 56 56     100%     29.88   0    
Apr 22 10:53 N 14 2.5 Rain and Fog/Mist OVC006 56 56     100%     29.88 29.87 0    
Apr 22 10:45 NNE 16 4 Light Rain and Fog/Mist BKN006 OVC009 56 56     100%     29.87   0    
Apr 22 10:19 NNE 16 2.5 Light Rain and Fog/Mist BKN006 OVC010 56 56     100%     29.86   0    
Apr 22 10:12 NNE 11 3 Light Rain and Fog/Mist OVC004 56 56     100%     29.86   0    
Apr 22 09:53 N 11 2.5 Rain and Fog/Mist OVC004 57 57     100%     29.86 29.85 0 0  
Apr 22 09:47 N 9 2 Light Rain and Fog/Mist OVC004 57 57     100%     29.85   0    
Apr 22 09:36 N 9 1.75 Rain and Fog/Mist OVC005 57 57     100%     29.85   0    
Apr 22 08:53 NNE 6 10 Cloudy BKN009 BKN014 OVC019 59 59     100%     29.84 29.84      
Apr 22 08:43 N 6 10 Cloudy BKN008 OVC020 60 59     96%     29.84        
Apr 22 08:14 Calm 10 Cloudy SCT009 OVC026 60 60     100%     29.85        
Apr 22 07:53 SE 5 10 Cloudy OVC028 60 59     96%     29.83 29.83      
Apr 22 07:37 Calm 10 Cloudy FEW009 OVC030 59 59     100%     29.84        
Apr 22 06:53 SE 8 10 Mostly Cloudy BKN034 BKN060 BKN080 58 58     100%     29.83 29.82     1
Apr 22 05:53 SE 11 10 Cloudy FEW006 BKN055 OVC070 55        %     29.81 29.8 0    
Apr 22 04:53 ESE 7 10 Light Rain SCT005 BKN055 OVC095 55        %     29.82 29.81 0    
Apr 22 04:36 ESE 9 6 Rain FEW005 BKN075 OVC110 55        %     29.83   0    
Apr 22 04:21 E 6 4 Rain FEW047 BKN065 OVC110 54        %     29.83   0    
Apr 22 04:14 SE 9 4 Light Rain FEW004 BKN044 OVC085 54        %     29.82   0    
Apr 22 04:04 ESE 8 2 Heavy Rain FEW004 BKN036 OVC060 54        %     29.83   0    
Apr 22 03:57 NE 3 3 Rain FEW004 BKN031 OVC085 54        %     29.86   0    
Apr 22 03:53 NE 8 2.5 Rain SCT005 BKN024 OVC080 54        %     29.85 29.85 0 1  
Apr 22 03:35 NW 5 1.5 Thunderstorms and Heavy Rain SCT005 BKN021 OVC048 54        %     29.87   0    
Apr 22 03:27 NE 13 2.5 Thunderstorms and Heavy Rain and Fog/Mist FEW007 SCT031 OVC048 54 54     100%     29.83   0    
Apr 22 03:20 NNE 13 6 Light Rain and Fog/Mist SCT007 SCT032 OVC048 54 54     100%     29.84   0    
Apr 22 03:02 NE 16 3 Light Rain and Fog/Mist SCT026 BKN033 OVC050 53 53     100%     29.83   0    
Apr 22 03:00 NE 15 2 Thunderstorms and Rain and Fog/Mist SCT026 BKN033 OVC050 53 53     100%     29.83   0    
Apr 22 02:53 NE 15 1.5 Thunderstorms and Heavy Rain and Fog/Mist BKN026 OVC033 53 53     100%     29.84 29.83 0    
Apr 22 02:50 NE 16 1.75 Thunderstorms and Heavy Rain and Fog/Mist SCT022 OVC030 54 54     100%     29.85   0    
Apr 22 02:37   2 Thunderstorms and Heavy Rain and Fog/Mist FEW009 BKN021 OVC027 53 53     100%     29.84   0    
Apr 22 02:24 N 17 4 Thunderstorms and Rain and Fog/Mist SCT008 BKN015 OVC020 53 52     96%     29.83   0    
Apr 22 02:10   7 Thunderstorms and Rain OVC006 55 54     96%     29.82   0    
Apr 22 02:01 NE 8 8 Light Rain OVC006 58 58     100%     29.79   0    
Apr 22 01:53 ENE 13 6 Light Rain and Fog/Mist OVC006 58 58     100%     29.79 29.78 0    
Apr 22 01:35 N 9 6 Light Rain and Fog/Mist OVC007 58 58     100%     29.81   0    
Apr 22 01:06 N 8 8 Cloudy OVC007 59 58     96%     29.84        
Apr 22 00:53 NNE 8 7 Cloudy OVC009 59 59     100%     29.83 29.83 0   0
Apr 22 00:51 NNE 7 6 Fog/Mist OVC009 59 59     100%     29.83   0    
Apr 22 00:37 E 7 6 Fog/Mist OVC010 59 58     96%     29.82   0    
Apr 22 00:09 E 8 5 Light Rain and Fog/Mist OVC008 59 58     96%     29.83   0    
Apr 21 23:53 ENE 10 8 Cloudy OVC010 59 58     96%     29.83 29.83      
Apr 21 22:53 NE 9 9 Cloudy OVC010 60 58     93%     29.86 29.85      
Apr 21 21:53 NE 16 10 Cloudy OVC011 61 58     90%     29.87 29.87      
Apr 21 20:53 NE 10 10 Cloudy OVC013 61 58     90%     29.89 29.88      
Apr 21 20:01 NNE 10 10 Mostly Cloudy BKN012 62 60     93%     29.88        
Apr 21 19:53 NNE 9 10 Partly Cloudy SCT012 62 60     93%     29.88 29.87      
Apr 21 18:53 NE 10 10 Clear CLR 64 60     87%     29.87 29.86     0
Apr 21 18:43 NE 13 10 Partly Cloudy SCT012 64 60     87%     29.87        
Apr 21 17:53 N 10 10 Mostly Cloudy BKN012 68 63     84%     29.89 29.88      
Apr 21 16:53 N 5 9 Partly Cloudy FEW012 SCT055 67 63     87%     29.9 29.88      
Apr 21 16:12 ENE 7 10 Partly Cloudy SCT011 67 62     84%     29.86        
Apr 21 15:53 E 10 10 Cloudy OVC011 66 62     87%     29.86 29.85   0  
Apr 21 15:02 NE 9 10 Mostly Cloudy BKN010 BKN047 65 61     87%     29.89        
Apr 21 14:53 NE 10 10 Mostly Cloudy SCT010 BKN041 BKN048 66 62     87%     29.91 29.9      
Apr 21 14:30 NE 11 10 Cloudy SCT010 OVC043 63 60     90%     29.92        
Apr 21 13:53 NNE 13 10 Cloudy BKN010 OVC050 62 60     93%     29.92 29.91 0    
Apr 21 13:07 N 11 7 Light Rain BKN010 OVC013 60 59     96%     29.93   0    
Apr 21 13:00 N 11 6 Light Rain and Fog/Mist OVC008 60 59     96%     29.94   0    
Apr 21 12:58 N 15 6 Light Rain and Fog/Mist FEW008 OVC012 60 59     96%     29.94   0    
Apr 21 12:53 N 8 6 Thunderstorms and Rain and Fog/Mist BKN008 OVC012 60 60     100%     29.95 29.94 0   0
Apr 21 12:45 N 9 3 Thunderstorms and Rain and Fog/Mist BKN006 BKN011 OVC032 60 60     100%     29.96   0    
Apr 21 12:41 N 9 1 Thunderstorms and Rain and Fog/Mist SCT006 BKN009 OVC032 60 60     100%     29.96   0    
Apr 21 12:37 NNW 11 0.75 Thunderstorms and Heavy Rain and Fog/Mist SCT006 BKN011 OVC032 60 60     100%     29.94   0    
Apr 21 12:29 NNW 10 1.75 Thunderstorms and Rain and Fog/Mist BKN006 BKN015 OVC022 61 61     100%     29.95   0    
Apr 21 12:19 N 11 4 Thunderstorms and Rain and Fog/Mist SCT004 BKN015 OVC022 62 62     100%     29.92   0    
Apr 21 12:08 NNE 9 7 Thunderstorms and Rain FEW005 BKN014 OVC032 63 63     100%     29.92   0    
Apr 21 11:53 NNE 10 6 Fog/Mist FEW005 OVC013 62 62     100%     29.93 29.92 0    
Apr 21 11:50 NNE 13 6 Fog/Mist FEW007 SCT010 OVC013 63 63     100%     29.93   0    
Apr 21 11:37 NNE 13 6 Light Rain and Fog/Mist BKN009 OVC015 63 62     97%     29.93   0    
Apr 21 11:22 NNW 8 7 Thunderstorms OVC009 63 63     100%     29.94        
Apr 21 10:53 N 10 8 Cloudy OVC008 67 66     97%     29.94 29.93      
Apr 21 10:01 NNE 9 4 Fog/Mist OVC007 67 66     97%     29.94        
Apr 21 09:53 NNE 9 3 Fog/Mist BKN006 OVC011 67 67     100%     29.94 29.93 0 0  
Apr 21 09:36 N 8 6 Fog/Mist OVC009 68 68     100%     29.94   0    
Apr 21 09:17 Calm 6 Fog/Mist BKN012 BKN025 OVC050 70 69     97%     29.95   0    
Apr 21 09:01 W 3 3 Light Rain and Fog/Mist SCT024 BKN043 OVC100 70 68     93%     29.95   0    
Apr 21 08:53 SSW 6 5 Light Rain and Fog/Mist BKN024 BKN055 BKN120 71 68     90%   72 29.95 29.94 0    
Apr 21 07:53 S 7 7 Mostly Clear FEW042 70 68     93%     29.96 29.95      
Apr 21 06:53 Calm 4 Fog/Mist SCT041 SCT120 65 65     100%     29.96 29.94      
Apr 21 05:53 Calm 6 Fog/Mist BKN047 OVC065 66 66     100%     29.96 29.95      
Apr 21 04:53 Calm 6 Fog/Mist OVC070 66 66     100%     29.95 29.93      
Apr 21 03:53 Calm 5 Fog/Mist CLR 65 65     100%     29.95 29.93      
Apr 21 02:53 S 3 9 Clear CLR 65 65     100%     29.95 29.93      
Apr 21 01:53 S 6 10 Clear CLR 68 66     93%     29.96 29.95      
Apr 21 00:53 S 6 10 Clear CLR 68 66     93%     29.98 29.97      
Apr 20 23:53 S 3 10 Clear CLR 70 67     90%     29.99 29.98      
Apr 20 22:53 S 5 10 Clear CLR 70 66     87%     30 29.98      
Apr 20 21:53 S 3 10 Mostly Clear FEW110 72 67     84%   73 30 29.99      
Apr 20 20:53 S 7 10 Mostly Clear FEW055 72 67     84%   73 29.99 29.98      
Apr 20 19:53 S 7 10 Mostly Clear FEW070 75 66     74%   76 29.98 29.97      
Apr 20 18:53 SSW 6 10 Mostly Cloudy BKN065 BKN100 80 66     62%   82 29.98 29.96     0
Apr 20 17:53 SW 8 10 Clear CLR 82 65     56%   84 29.97 29.96      
Apr 20 16:53 7 10 Partly Cloudy SCT090 81 67     62%   83 29.97 29.96      
Apr 20 15:53 SSW 11 10 Partly Cloudy FEW070 SCT090 82 66     58%   84 29.99 29.97   0  
Apr 19 15:53 SSW 16 10 Clear CLR 84 57     40%   83 30.07 30.06      
Apr 19 14:53 SSW 14 10 Clear CLR 85 60     43%   85 30.08 30.07      
Apr 19 13:53 S 18 10 Mostly Clear FEW048 84 64     51%   85 30.1 30.08      
Apr 19 12:53 S 11 10 Partly Cloudy SCT045 SCT055 82 64     55%   84 30.12 30.11      
Apr 19 11:53 5 10 Partly Cloudy SCT037 81 67     62%   83 30.13 30.11      
Apr 19 10:53 WSW 5 10 Clear CLR 78 66     67%   79 30.14 30.12      
Apr 19 09:53 SSW 5 10 Clear CLR 75 67     76%   76 30.14 30.13      
Apr 19 08:53 SSW 7 10 Clear CLR 72 67     84%   73 30.14 30.13      
Apr 19 07:53 S 6 10 Clear CLR 69 66     90%     30.14 30.13      
Apr 19 06:53 S 6 6 Fog/Mist CLR 64 64     100%     30.12 30.11      
Apr 19 05:53 S 3 6 Fog/Mist CLR 61 61     100%     30.11 30.1      
Apr 19 05:48 SSE 3 3 Fog/Mist CLR 61 61     100%     30.11        
Apr 19 05:44 Calm 1 Fog/Mist CLR 60 60     100%     30.11        
Apr 19 05:41 Calm 0.5 Fog VV004 60 60     100%     30.11        
Apr 19 05:32 Calm 0.75 Fog/Mist VV004 61 61     100%     30.1        
Apr 19 05:21 Calm 0.5 Fog CLR 62 62     100%     30.1        
Apr 19 05:15 Calm 1.75 Fog/Mist CLR 62 62     100%     30.1        
Apr 19 04:53 Calm 5 Fog/Mist CLR 62 62     100%     30.09 30.08      
Apr 19 03:53 S 3 9 Clear CLR 63 63     100%     30.09 30.08      
Apr 19 02:53 SSE 5 10 Clear CLR 63 63     100%     30.08 30.07      
Apr 19 01:53 SSE 5 10 Clear CLR 63 63     100%     30.08 30.07      
Apr 19 00:53 S 5 10 Clear CLR 65 64     97%     30.09 30.08      
Apr 18 22:53 S 5 10 Clear CLR 67 66     97%     30.09 30.08      
Apr 18 21:53 SSW 6 10 Clear CLR 69 67     93%     30.09 30.08      
Apr 18 20:53 S 5 10 Clear CLR 69 67     93%     30.07 30.06      
Apr 18 19:53 S 5 10 Partly Cloudy SCT050 72 67     84%   73 30.05 30.04      
Apr 18 18:53 SW 5 10 Cloudy OVC036 75 65     71%   76 30.05 30.04      
Apr 18 17:53 SSW 7 10 Clear CLR 77 65     66%   78 30.04 30.03      
Apr 18 16:53 S 9 10 Mostly Clear FEW037 78 66     67%   79 30.03 30.02      
Apr 18 15:53 SSW 8 10 Partly Cloudy FEW034 SCT048 76 66     71%   77 30.04 30.03      
Apr 18 14:53 S 8 10 Partly Cloudy SCT030 SCT039 77 66     69%   78 30.06 30.05      
Apr 18 13:53 SSW 5 10 Partly Cloudy SCT037 SCT047 SCT060 76 68     76%   77 30.06 30.06      
Apr 18 13:27 SW 6 10 Mostly Cloudy FEW018 SCT035 BKN044 74 68     82%   75 30.07        
Apr 18 12:53 5 10 Mostly Cloudy BKN021 BKN027 BKN032 73 68     84%   74 30.07 30.06      
Apr 18 12:09 6 10 Cloudy BKN016 OVC022 72 68     87%   73 30.08        
Apr 18 11:53 SSW 5 10 Cloudy OVC012 71 67     87%   72 30.08 30.07      
Apr 18 11:39 S 6 10 Cloudy OVC010 70 67     90%     30.09        
Apr 18 10:53 S 6 9 Cloudy OVC006 68 66     93%     30.09 30.08      
Apr 18 10:24 S 6 9 Cloudy OVC005 67 66     97%     30.08        
Apr 18 09:53 S 6 8 Cloudy OVC004 66 66     100%     30.08 30.07      
Apr 18 08:53 S 6 5 Fog/Mist OVC004 64 64     100%     30.08 30.07      
Apr 18 08:28 SSE 5 4 Fog/Mist OVC003 64 64     100%     30.08        
Apr 18 08:18 SSE 3 2 Fog/Mist OVC003 64 64     100%     30.08        
Apr 18 08:07 SSE 3 1.75 Fog/Mist OVC003 63 63     100%     30.08        
Apr 18 07:53 SSE 3 2 Fog/Mist OVC004 63 63     100%     30.07 30.06      
Apr 18 07:42 SE 6 1.5 Fog/Mist OVC004 63 63     100%     30.07        
Apr 18 07:30 SE 7 2.5 Fog/Mist OVC004 63 63     100%     30.07        
Apr 18 06:53 SE 5 6 Fog/Mist BKN005 OVC009 64 64     100%     30.06 30.05     0
Apr 18 06:05 Calm 4 Fog/Mist BKN009 OVC100 63 63     100%     30.05        
Apr 18 05:53 Calm 3 Fog/Mist BKN010 OVC100 63 63     100%     30.05 30.04      
Apr 18 05:42 Calm 2.5 Fog/Mist FEW005 BKN009 BKN100 63 63     100%     30.06        
Apr 18 05:33 Calm 2 Fog/Mist FEW005 SCT009 SCT100 63 63     100%     30.05        
Apr 18 05:30 Calm 0.75 Fog/Mist SCT005 SCT100 63 63     100%     30.05        
Apr 18 05:25 Calm 0.5 Fog VV005 63 63     100%     30.05        
Apr 18 05:17 Calm 0.75 Fog/Mist VV007 63 63     100%     30.05        
Apr 18 05:13 Calm 1.75 Fog/Mist CLR 63 63     100%     30.05        
Apr 18 04:53 Calm 4 Fog/Mist CLR 63 63     100%     30.04 30.03      
Apr 18 04:20 SE 5 6 Fog/Mist FEW005 64 64     100%     30.03        
Apr 18 03:53 E 3 8 Mostly Clear FEW120 64 64     100%     30.03 30.02 0 0  
Apr 18 02:53 Calm 8 Light Rain FEW039 SCT060 OVC100 64 64     100%     30.03 30.02 0    
Apr 18 02:11 Calm 9 Cloudy SCT005 BKN075 OVC100 64 64     100%     30.04        
Apr 18 01:53 Calm 10 Cloudy BKN080 OVC095 64 64     100%     30.03 30.02      
Apr 18 00:53 NNE 3 5 Fog/Mist SCT095 63 63     100%     30.04 30.03      
Apr 17 23:53 WNW 3 4 Clear   63 63     100%     30.04 30.03      
Apr 17 23:13 N 3 3 Fog/Mist CLR 63 63     100%     30.04        
Apr 17 23:03 Calm 2 Fog/Mist CLR 64 64     100%     30.04        
Apr 17 22:53 Calm 5 Fog/Mist FEW009 FEW027 64 64     100%     30.04 30.03      
Apr 17 22:40 Calm 6 Fog/Mist SCT027 64 64     100%     30.04        
Apr 17 22:30 Calm 8 Mostly Cloudy BKN027 BKN044 65 65     100%     30.05        
Apr 17 21:53 SE 3 10 Partly Cloudy SCT080 66 65     96%     30.04 30.03      
Apr 17 21:24 ESE 3 9 Mostly Cloudy SCT012 BKN080 66 65     96%     30.04        
Apr 17 21:16 ESE 3 9 Mostly Cloudy BKN012 BKN080 65 64     97%     30.04        
Apr 17 20:53 SE 5 10 Clear CLR 65 64     97%     30.04 30.02      
Apr 17 19:53 SSE 7 10 Mostly Cloudy SCT018 BKN036 BKN120 67 64     90%     30.02 30.01      
Apr 17 18:53 6 10 Mostly Cloudy SCT019 BKN120 72 66     82%   73 30 29.99     0
Apr 17 17:53 E 3 10 Clear CLR 72 65     79%   73 29.97 29.96      
Apr 17 17:00 3 10 Cloudy BKN030 OVC065 74 64     71%   74 30.01        
Apr 17 16:53 Calm 10 Cloudy BKN028 BKN037 OVC065 73 64     73%   73 30.01 30      
Apr 17 15:53 NNE 8 10 Mostly Cloudy FEW019 BKN110 74 65     74%   74 30.02 30.01 0 0  
Apr 17 15:08 N 8 10 Light Rain SCT014 BKN060 OVC080 73 66     79%   74 30.04   0    
Apr 17 14:53 N 8 10 Mostly Cloudy BKN014 71 67     87%   72 30.05 30.04      
Apr 17 14:48 N 9 10 Mostly Cloudy BKN013 72 66     83%   72 30.05        
Apr 17 14:33 N 8 10 Partly Cloudy SCT012 72 67     84%   73 30.04        
Apr 17 14:11 NNE 8 10 Mostly Cloudy BKN012 BKN060 73 69     87%   74 30.05        
Apr 17 13:53 NNE 8 10 Mostly Cloudy SCT010 BKN070 BKN110 72 69     91%   73 30.05 30.04 0    
Apr 17 13:08 NNE 6 10 Light Rain FEW028 BKN085 OVC100 69 68     96%     30.05   0    
Apr 17 12:48 3 8 Thunderstorms and Rain FEW055 SCT070 OVC095 69 68     96%     30.05 30.04 0   0
Apr 17 12:47 3 8 Thunderstorms and Rain FEW055 SCT070 OVC095 70 68     94%     30.05   0    
Apr 17 12:17 Calm 5 Light Rain and Fog/Mist FEW014 BKN080 OVC100 68 68     100%     30.07   0    
Apr 17 12:10 5 2.5 Light Rain and Fog/Mist SCT013 BKN070 OVC085 68 68     100%     30.07   0    
Apr 17 12:06 5 0.75 Light Rain and Fog/Mist SCT013 BKN031 OVC090 68 68     100%     30.07   0    
Apr 17 11:57 NW 9 0.75 Heavy Rain and Fog/Mist BKN015 OVC070 68 68     100%     30.07   0    
Apr 17 11:53 WNW 8 1 Thunderstorms and Heavy Rain and Fog/Mist OVC015 68 67     96%     30.08 30.06 0    
Apr 17 11:50 6 1 Thunderstorms and Heavy Rain and Fog/Mist OVC015 68 66     94%     30.08   0    
Apr 17 11:48 W 7 0.75 Thunderstorms and Heavy Rain and Fog/Mist BKN013 OVC018 68 66     94%     30.08   0    
Apr 17 11:37 Calm 0.5 Thunderstorms and Heavy Rain and Fog OVC017 70 68     93%     30.08   0    
Apr 17 11:33 W 5 1.75 Thunderstorms and Rain and Fog/Mist OVC017 70 67     90%     30.07   0    
Apr 17 11:31 W 5 3 Thunderstorms and Rain and Fog/Mist OVC017 71 67     87%   72 30.07   0    
Apr 17 11:24 WNW 6 9 Cloudy OVC017 72 67     84%   73 30.07        
Apr 17 10:53 WSW 5 10 Cloudy OVC016 72 67     84%   73 30.07 30.06      
Apr 17 09:53 SSW 5 10 Cloudy OVC017 71 66     84%   72 30.07 30.06      
Apr 17 09:41 S 9 10 Mostly Cloudy BKN017 BKN070 71 66     84%   72 30.07        
Apr 17 08:53 S 9 10 Mostly Clear FEW070 70 66     87%     30.06 30.05      
Apr 17 07:53 S 8 10 Clear CLR 65 64     97%     30.06 30.05      
Apr 17 06:53 S 7 10 Clear CLR 63 62     97%     30.05 30.04      
Apr 17 05:53 S 5 10 Clear CLR 60 60     100%     30.05 30.04      
Apr 17 04:53 S 3 10 Clear CLR 61 60     97%     30.04 30.03      
Apr 17 03:53 Calm 10 Clear   65 63     93%     30.03 30.02      
Apr 17 02:53 S 5 10 Mostly Clear FEW065 64 62     93%     30.04 30.03      
Apr 17 01:53 S 3 10 Mostly Clear FEW065 66 63     90%     30.05 30.03      
Apr 17 00:53 Calm 10 Cloudy SCT048 OVC060 67 64     90%     30.06 30.05      
Apr 16 23:53 S 6 10 Mostly Cloudy FEW050 BKN060 69 64     84%     30.07 30.06      
Apr 16 22:53 Calm 10 Mostly Cloudy BKN042 BKN049 68 64     87%     30.08 30.06      
Apr 16 21:53 SSE 5 10 Clear CLR 68 62     81%     30.09 30.08      
Apr 16 20:53 Calm 10 Mostly Cloudy BKN060 70 63     78%     30.08 30.07      
Apr 16 19:53 SSW 3 10 Clear CLR 73 64     73%   73 30.06 30.04      
Apr 16 18:53 S 11 10 Mostly Clear FEW032 76 65     69%   76 30.04 30.03      
Apr 16 17:53 S 10 10 Clear CLR 78 60     54%   78 30 29.99      
Apr 16 16:53 SSW 6 10 Clear CLR 77 60     56%   77 30.04 30.02      
Apr 16 15:53 WSW 8 10 Clear CLR 78 59     52%   78 30.06 30.05      
Apr 16 14:53 SW 10 10 Cloudy OVC090 79 61     54%   79 30.08 30.06      
Apr 16 13:53 SW 13 10 Mostly Clear FEW034 78 63     60%   78 30.11 30.1      
Apr 16 12:53 SSW 9 10 Mostly Cloudy BKN031 77 64     64%   77 30.13 30.12      
Apr 16 12:49 SSW 13 10 Mostly Cloudy BKN031 75 64     69%   76 30.13        
Apr 16 11:53 SSW 11 10 Cloudy SCT022 OVC028 73 64     73%   73 30.14 30.13      
Apr 09 00:53 S 10 10 Clear CLR 60 46     60%     29.95 29.94      
Apr 08 23:53 S 9 10 Clear CLR 60 46     60%     29.95 29.95      
Apr 08 22:53 S 10 10 Clear CLR 63 45     52%     29.96 29.95      
Apr 08 21:53 S 13 10 Clear CLR 64 46     52%     29.96 29.95      
Apr 08 20:53 SSE 9 10 Clear CLR 61 46     58%     29.95 29.95      
Apr 08 19:53 SSE 10 10 Clear CLR 67 45     45%     29.94 29.94      
Apr 08 18:53 S 13 10 Clear CLR 70 45     41%     29.95 29.95      
Apr 08 17:53 S 14 10 Clear CLR 74 45     36%   73 29.95 29.95      
Apr 08 16:53 S 17 10 Clear CLR 75 43     32%   74 29.97 29.97      
Apr 08 15:53 S 13 10 Clear CLR 74 44     34%   73 30 29.99      
Apr 08 14:53 S 15 10 Clear CLR 74 44     34%   73 30.03 30.02      
Apr 08 13:53 SSW 11 10 Clear CLR 72 41     33%   70 30.07 30.06      
Apr 08 12:53 S 16 10 Clear CLR 71 40     32%   69 30.09 30.09      
Apr 08 11:53 S 16 10 Clear CLR 68 39     35%     30.11 30.11      
Apr 08 10:53 S 14 10 Clear CLR 66 38     36%     30.12 30.12      
Apr 08 09:53 S 11 10 Clear CLR 62 39     43%     30.12 30.12      
Apr 08 08:53 S 10 10 Clear CLR 56 38     51%     30.13 30.12      
Apr 08 07:53 S 6 10 Clear CLR 50 41     71% 48   30.13 30.12      
Apr 08 06:53 S 5 10 Clear CLR 44 38     79% 41   30.12 30.11      
Apr 08 05:53 SSE 3 10 Clear CLR 44 38     79% 43   30.11 30.1      
Apr 08 04:53 SSE 5 10 Clear CLR 44 37     76% 41   30.1 30.09      
Apr 08 03:53 SSE 5 10 Clear CLR 44 37     76% 41   30.09 30.09      
Apr 08 02:53 SW 7 10 Clear CLR 48 38     68% 45   30.09 30.09      
Apr 08 01:53 SE 5 10 Clear CLR 41 38     89% 38   30.1 30.1      
Apr 08 00:53 S 3 10 Clear CLR 43 38     82% 41   30.11 30.11      
Apr 07 23:53 S 5 10 Clear CLR 48 36     63% 46   30.1 30.1      
Apr 07 22:53 S 3 10 Clear CLR 49 38     66% 48   30.11 30.11      
Apr 07 21:53 Calm 10 Clear CLR 50 37     61%     30.13 30.13      
Apr 07 20:53 Calm 10 Clear CLR 50        %     30.13 30.13      
Apr 07 19:53 Calm 10 Clear CLR 55 37     51%     30.12 30.12      
Apr 07 18:53 3 10 Clear CLR 62 29     28%     30.12 30.12      
Apr 07 17:53 5 10 Clear CLR 64 24     22%     30.13 30.12      
Apr 07 16:53 7 10 Clear CLR 65 29     26%     30.13 30.13      
Apr 07 15:53 N 7 10 Clear CLR 65 29     26%     30.15 30.15      
Apr 07 14:53 NNW 8 10 Clear CLR 63 29     28%     30.17 30.17      
Apr 07 13:53 NNW 8 10 Clear CLR 63 32     31%     30.19 30.19      
Apr 07 12:53 NNW 7 10 Clear CLR 61 33     35%     30.21 30.21      
Apr 07 11:53 NNW 9 10 Clear CLR 59 33     37%     30.23 30.22      
Apr 07 10:53 N 8 10 Clear CLR 58 36     44%     30.24 30.23      
Apr 07 09:53 N 8 10 Clear CLR 57 34     42%     30.23 30.23      
Apr 07 08:53 NNW 7 10 Clear CLR 52 38     59%     30.23 30.23      
Apr 07 07:53 6 10 Clear CLR 47 38     71% 44   30.22 30.22      
Apr 07 06:53 NW 3 10 Clear CLR 41 36     82% 39   30.2 30.2      
Apr 07 05:53 Calm 10 Clear CLR 41 35     79%     30.19 30.19      
Apr 07 04:53 Calm 10 Clear CLR 43 36     76%     30.17 30.17      
Apr 07 03:53 Calm 10 Clear CLR 43 36     76%     30.17 30.16      
Apr 07 02:53 Calm 10 Clear CLR 42 38     85%     30.16 30.16      
Apr 07 01:53 Calm 10 Clear CLR 45 39     80%     30.16 30.16      
Apr 07 00:53 Calm 10 Clear CLR 46 37     71%     30.15 30.15      
Apr 06 23:53 Calm 10 Clear CLR 48 37     66%     30.14 30.14      
Apr 06 22:53 Calm 10 Clear CLR 51 36     56%     30.12 30.12      
Apr 06 21:53 NW 5 10 Clear CLR 53 35     50%     30.11 30.11      
Apr 06 20:53 NW 3 10 Clear CLR 55 35     47%     30.08 30.08      
Apr 06 19:53 5 10 Clear CLR 57 36     45%     30.06 30.06      
Apr 06 18:53 NW 10 10 Clear CLR 61 33     35%     30.05 30.05     0
Apr 06 17:53 WNW 11 10 Cloudy BKN095 OVC110 61 35     38%     30.05 30.04 0    
Apr 06 16:53 NW 10 10 Partly Cloudy SCT080 SCT110 63 37     38%     30.04 30.03      
Apr 06 15:53 NW 10 10 Mostly Cloudy FEW070 BKN090 63 37     38%     30.05 30.04      
Apr 06 14:53 WNW 16 10 Cloudy BKN075 OVC090 63 38     40%     30.06 30.05      
Apr 06 13:53 WNW 13 10 Mostly Cloudy SCT065 BKN080 62 39     43%     30.07 30.07      
Apr 06 12:53 WNW 11 10 Mostly Clear FEW060 FEW075 60 38     44%     30.08 30.08      
Apr 06 11:53 NW 11 10 Clear CLR 59 39     47%     30.09 30.09      
Apr 06 10:53 NW 10 10 Clear CLR 57 38     49%     30.1 30.09      
Apr 06 09:53 NW 10 10 Clear CLR 54 39     57%     30.09 30.09      
Apr 06 08:53 NW 9 10 Clear CLR 51 39     63%     30.07 30.07      
Apr 06 07:53 W 9 10 Clear CLR 48 38     68% 44   30.04 30.04      
Apr 06 06:53 W 7 10 Clear CLR 46 38     73% 42   30 30      
Apr 06 05:53 WNW 8 10 Clear CLR 46 38     73% 42   29.96 29.96      
Apr 06 04:53 NW 8 10 Clear CLR 47 38     71% 43   29.92 29.92      
Apr 06 03:53 NW 10 10 Mostly Clear FEW040 48 39     71% 43   29.91 29.91      
Apr 06 02:53 NW 10 10 Mostly Cloudy BKN043 49 39     69% 45   29.9 29.9      
Apr 06 00:53 WNW 11 10 Partly Cloudy SCT043 50 41     71% 46   29.88 29.88     0
Apr 05 23:53 WNW 14 10 Clear CLR 50 40     68% 45   29.87 29.86      
Apr 05 22:53 W 11 10 Partly Cloudy SCT048 51 40     65%     29.86 29.85      
Apr 05 21:53 WNW 10 10 Mostly Cloudy BKN050 52 40     63%     29.85 29.85   0  
Apr 05 20:53 WNW 16 10 Mostly Cloudy FEW080 BKN095 53 40     61%     29.83 29.82 0    
Apr 05 19:53 WNW 9 10 Cloudy BKN055 OVC080 54 43     66%     29.79 29.78 0    
Apr 05 18:53 W 11 10 Light Rain SCT035 OVC050 53 48     83%     29.76 29.75 0   0
Apr 05 17:53 WSW 10 10 Cloudy SCT041 OVC048 57 47     69%     29.73 29.72 0    
Apr 05 16:53 WSW 18 10 Cloudy FEW035 FEW044 OVC060 59 46     62%     29.71 29.7      
Apr 05 15:53 WSW 13 10 Cloudy BKN050 OVC055 60 47     62%     29.69 29.68      
Apr 05 14:53 WSW 13 10 Clear   61 47     60%     29.68 29.67      
Apr 05 13:53 SW 10 10 Mostly Cloudy SCT039 BKN048 65 49     56%     29.66 29.65      
Apr 05 13:13 SW 16 10 Cloudy SCT028 BKN033 OVC044 62 51     67%     29.65        
Apr 05 12:53 W 13 10 Cloudy BKN028 OVC040 61 52     72%     29.65 29.64      
Apr 05 12:42 WSW 13 10 Mostly Cloudy BKN028 BKN036 61 52     72%     29.65        
Apr 05 11:53 SW 15 10 Clear CLR 64 55     73%     29.62 29.62      
Apr 05 10:53 WSW 13 10 Clear CLR 67 56     68%     29.61 29.59      
Apr 05 09:53 SSW 14 10 Mostly Clear FEW029 68 60     76%     29.58 29.57      
Apr 05 08:53 S 13 10 Mostly Clear FEW095 66 59     78%     29.6 29.59      
Apr 05 07:53 SSE 10 10 Clear CLR 64 57     78%     29.61 29.6      
Apr 05 06:53 E 9 10 Mostly Cloudy FEW090 BKN110 62 53     72%     29.62 29.61 0   0
Apr 05 05:53 E 7 10 Clear CLR 60 53     78%     29.65 29.64      
Apr 05 04:53 N 7 10 Clear   63 56     78%     29.69 29.67      
Apr 05 03:53 5 10 Mostly Cloudy BKN110 66 56     70%     29.69 29.68      
Apr 05 02:53 S 11 10 Clear CLR 66 55     68%     29.66 29.64      
Apr 05 01:53 S 11 10 Clear CLR 63 56     78%     29.66 29.65      
Apr 05 00:53 S 7 10 Clear CLR 62 57     84%     29.67 29.66      
Apr 04 23:53 SSE 8 10 Clear CLR 62 57     84%     29.67 29.65      
Apr 04 22:53 SE 5 10 Clear CLR 64 58     81%     29.67 29.65      
Apr 04 21:53 SSE 8 10 Clear CLR 64 59     84%     29.68 29.67      
Apr 04 20:53 SE 7 10 Clear CLR 67 59     76%     29.7 29.69      
Apr 04 19:53 SSE 6 10 Clear CLR 68 60     76%     29.71 29.7      
Apr 04 18:53 S 7 10 Clear CLR 74 61     64%   74 29.71 29.7      
Apr 04 17:53 SSW 13 10 Clear CLR 78 57     48%   78 29.72 29.71      
Apr 04 16:53 S 15 10 Clear CLR 79 58     49%   79 29.71 29.7      
Apr 04 15:53 S 16 10 Clear CLR 78 57     48%   78 29.73 29.72      
Apr 04 14:53 S 15 10 Clear CLR 78 59     52%   78 29.75 29.73      
Apr 04 13:53 S 8 10 Clear CLR 77 57     50%   77 29.76 29.75      
Apr 04 12:53 7 10 Clear CLR 76 57     52%   76 29.79 29.78      
Apr 04 11:53 SE 7 10 Clear CLR 74 59     60%   74 29.79 29.78      
Apr 04 10:53 SE 6 10 Clear CLR 69 57     65%     29.82 29.81      
Apr 04 08:53 SSE 3 10 Clear CLR 61 59     93%     29.81 29.8      
Apr 04 07:53 Calm 8 Clear CLR 56 56     100%     29.8 29.79      
Apr 04 06:53 Calm 9 Clear CLR 54 54     100%     29.78 29.78      
Apr 04 05:53 S 5 10 Clear CLR 51 51     100%     29.78 29.77      
Apr 04 04:53 SSW 3 10 Clear CLR 54 53     97%     29.75 29.74      
Apr 04 03:53 SSW 5 10 Clear CLR 59 56     90%     29.74 29.72      
Apr 04 02:53 SSW 3 10 Clear CLR 59 56     90%     29.73 29.72      
Apr 04 01:53 SSW 6 10 Clear CLR 61 56     83%     29.73 29.72      
Apr 04 00:53 WSW 3 10 Clear CLR 63 55     75%     29.72 29.71      
Apr 03 23:53 SW 5 10 Mostly Cloudy BKN065 63 56     78%     29.71 29.7      
Apr 03 22:53 SW 7 10 Mostly Clear FEW065 64 56     75%     29.69 29.68      
Apr 03 21:53 SW 6 10 Clear CLR 64 57     78%     29.68 29.67      
Apr 03 20:53 SW 3 10 Clear CLR 65 57     76%     29.64 29.64      
Apr 03 19:53 SW 5 10 Mostly Clear FEW080 68 55     63%     29.61 29.6      
Apr 03 18:53 W 9 10 Clear CLR 70 55     59%     29.59 29.57     0
Apr 03 17:53 WSW 11 10 Mostly Cloudy SCT050 SCT060 BKN070 71 56     59%   71 29.56 29.55      
Apr 03 16:53 WSW 11 10 Mostly Cloudy SCT048 BKN060 71 56     59%   71 29.55 29.54      
Apr 03 15:53 WSW 10 10 Partly Cloudy SCT038 SCT055 73 58     59%   73 29.53 29.52   0  
Apr 03 14:53 SW 14 10 Clear   71 60     68%   71 29.53 29.52 0    
Apr 03 13:53 SW 10 10 Mostly Cloudy FEW028 BKN070 BKN085 68 62     81%     29.55 29.54 0    
Apr 03 13:23 SSW 11 10 Mostly Cloudy FEW035 SCT070 BKN090 67 63     87%     29.57   0    
Apr 03 13:00 SSW 14 10 Cloudy SCT037 BKN044 OVC075 63 62     97%     29.58   0    
Apr 03 12:53 SW 8 9 Cloudy BKN039 BKN055 OVC075 62 62     100%     29.58 29.57 1   1
Apr 03 12:48 SW 11 2.5 Cloudy SCT026 BKN037 OVC075 63 63     100%     29.58   1    
Apr 03 12:38 WSW 10 1.25 Thunderstorms and Rain and Fog/Mist FEW021 BKN030 OVC055 61 61     100%     29.58   1    
Apr 03 12:32 WSW 13 0.75 Thunderstorms and Heavy Rain and Fog/Mist SCT016 BKN023 OVC044 61 60     97%     29.58   1    
Apr 03 12:27 SW 11 0.25 Thunderstorms and Heavy Rain and Fog SCT011 BKN023 OVC034 61 60     97%     29.59   1    
Apr 03 12:20   0.5 Thunderstorms and Heavy Rain and Fog FEW007 BKN023 OVC039 61 59     93%     29.58   0    
Apr 03 12:18   1.25 Thunderstorms and Rain and Fog/Mist BKN023 BKN031 OVC039 61 59     93%     29.59   0    
Apr 03 12:02 SSW 18 10 Thunderstorms and Rain BKN023 OVC031 68 62     81%     29.57   0    
Apr 03 11:53 SSW 18 10 Light Rain BKN022 BKN028 OVC044 69 62     78%     29.57 29.56 0    
Apr 03 11:50 S 18 10 Light Rain BKN022 BKN028 OVC034 70 63     78%     29.57   0    
Apr 03 10:53 S 16 10 Light Rain BKN019 OVC024 65 61     87%     29.59 29.59 0    
Apr 03 10:33 S 16 10 Clear   65 61     87%     29.59   0    
Apr 03 10:02 S 15 10 Clear   63 61     93%     29.58   0    
Apr 03 09:53 S 15 10 Clear   63 61     93%     29.58 29.58 0 0  
Apr 03 09:21 S 17 10 Light Rain BKN018 OVC046 63 61     93%     29.59   0    
Apr 03 08:53 S 16 10 Mostly Clear FEW045 63 60     90%     29.6 29.6      
Apr 03 07:53 S 9 10 Partly Cloudy SCT055 61 59     93%     29.59 29.58      
Apr 03 06:53 SSW 5 10 Clear CLR 61 59     93%     29.58 29.57 0   0
Apr 03 05:53 S 9 10 Light Rain CLR 62 59     90%     29.55 29.54 0    
Apr 03 04:53 S 10 10 Light Rain CLR 63 60     90%     29.59 29.58 0    
Apr 03 03:53   10 Light Rain FEW070 SCT090 BKN110 63        %         0 0  
Apr 03 02:53 SSE 20 8 Light Rain OVC095 63 63     100%     29.69 29.68 0    
Apr 03 02:38 SSE 25 7 Light Rain OVC095 63 63     100%     29.68   0    
Apr 03 02:23 SSE 25 8 Thunderstorms and Rain OVC095 63 63     100%     29.67   0    
Apr 03 02:15 SSE 25 7 Light Rain OVC100 63 63     100%     29.68   0    
Apr 03 02:07 SSE 23 8 Light Rain OVC100 63 63     100%     29.68   0    
Apr 03 01:53 SSE 22 9 Light Rain OVC100 63 63     100%     29.68 29.67 0    
Apr 03 01:23 S 22 9 Light Rain OVC100 63 62     97%     29.71   0    
Apr 03 00:53 SSE 23 10 Light Rain OVC100 64 62     93%     29.68 29.67 0   0
Apr 02 23:53 S 14 10 Light Rain BKN110 64 62     93%     29.74 29.73 0    
Apr 02 22:53 S 13 10 Mostly Clear FEW017 63 62     97%     29.7 29.69      
Apr 02 21:59 SSW 9 10 Partly Cloudy SCT009 SCT022 62 62     100%     29.72        
Apr 02 21:53 SSE 13 10 Mostly Cloudy SCT009 BKN014 BKN021 62 62     100%     29.66 29.65 0 0  
Apr 02 21:46 S 11 10 Cloudy BKN009 BKN014 OVC021 62 62     100%     29.7   0    
Apr 02 21:34 S 14 9 Cloudy SCT009 BKN014 OVC023 62 62     100%     29.73   0    
Apr 02 21:19 SE 14 10 Mostly Cloudy SCT008 BKN024 BKN110 62 62     100%     29.73   0    
Apr 02 20:53 E 18 10 Mostly Clear FEW008 FEW110 62 62     100%     29.69   0    
Apr 02 20:38   10 Mostly Cloudy FEW006 SCT022 BKN036 62 62     100%     29.71   0    
Apr 02 20:27   8 Mostly Cloudy FEW006 BKN022 BKN028 62 62     100%     29.71   0    
Apr 02 20:06   4 Light Rain and Fog/Mist FEW007 OVC022 62 62     100%     29.77   0    
Apr 02 19:53 5 3 Rain and Fog/Mist BKN022 BKN028 OVC035 63 63     100%     29.82 29.81 0    
Apr 02 19:50 7 4 Rain and Fog/Mist BKN023 BKN028 OVC035 63 63     100%     29.82   0    
Apr 02 19:30 NNW 8 5 Rain and Fog/Mist FEW030 OVC038 63 62     97%     29.8   0    
Apr 02 19:22 N 3 2.5 Rain and Fog/Mist BKN038 OVC048 64 63     96%     29.81   0    
Apr 02 19:12 W 6 3 Heavy Rain and Fog/Mist SCT040 BKN048 OVC060 65 61     87%     29.83   0    
Apr 02 18:53 WNW 3 5 Thunderstorms and Rain and Fog/Mist BKN060 OVC100 63 62     97%     29.8 29.8 0   0
Apr 02 18:29 Calm 5 Thunderstorms and Rain and Fog/Mist BKN060 OVC095 65 62     90%     29.79   0    
Apr 02 18:03 SE 6 9 Light Rain BKN060 BKN080 BKN100 73 56     55%   73 29.77   0    
Apr 02 17:53 SSE 6 10 Mostly Cloudy BKN065 BKN085 73 54     51%   72 29.78 29.77      
Apr 02 16:53 E 6 10 Clear CLR 76 54     47%   75 29.77 29.76      
Apr 02 15:53 SE 13 10 Clear CLR 77 54     45%   77 29.81 29.8      
Apr 02 14:53 SSE 13 10 Clear CLR 79 54     42%   79 29.87 29.86      
Apr 02 13:53 SSE 10 10 Clear CLR 77 54     45%   77 29.87 29.86      
Apr 02 12:53 SE 6 10 Clear CLR 76 54     47%   75 29.93 29.92      
Apr 02 11:53 SSE 8 10 Clear CLR 73 53     50%   72 29.97 29.97      
Apr 02 10:53 SE 8 10 Clear CLR 69 51     53%     30.01 30      
Apr 02 09:53 ESE 14 10 Clear CLR 63 49     60%     30.02 30.01      
Apr 02 08:53 ESE 9 10 Clear CLR 57 48     72%     30.06 30.05      
Apr 02 07:53 ESE 9 10 Clear CLR 55 47     74%     30.09 30.08      
Apr 02 06:53 E 5 10 Clear CLR 53 46     77%     30.07 30.06      
Apr 02 05:53 E 8 10 Clear CLR 54 47     77%     30.05 30.04      
Apr 02 04:53 E 11 10 Clear CLR 55 47     74%     30.03 30.03      
Apr 02 03:53 E 9 10 Clear CLR 55 48     77%     30.04 30.03      
Apr 02 02:53 ENE 9 10 Clear CLR 54 48     80%     30.05 30.05      
Apr 02 01:53 ENE 8 10 Clear CLR 55 49     80%     30.05 30.04      
Apr 02 00:53 NE 7 10 Clear CLR 55 50     83%     30.07 30.06      
Apr 01 23:53 Calm 10 Clear CLR 55 50     83%     30.1 30.09      
Apr 01 22:53 NE 7 10 Clear CLR 57 50     77%     30.09 30.08      
Apr 01 21:53 ENE 10 10 Clear CLR 59 50     72%     30.09 30.08      
Apr 01 20:53 ENE 9 10 Clear CLR 61 51     70%     30.07 30.07      
Apr 01 19:53 ENE 9 10 Clear CLR 63 52     67%     30.06 30.06      
Apr 01 18:53 E 9 10 Clear CLR 66 52     61%     30.06 30.06      
Apr 01 17:53 ENE 9 10 Clear CLR 70 52     53%     30.07 30.07      
Apr 01 16:53 NE 8 10 Clear   70 52     53%     30.09 30.08      
Apr 01 15:53 ENE 8 10 Clear CLR 70 52     53%     30.09 30.08      
Apr 01 14:53 ENE 8 10 Clear CLR 69 51     53%     30.09 30.09      
Apr 01 13:53 N 9 10 Clear CLR 67 51     57%     30.12 30.11      
Apr 01 12:53 NNE 9 10 Clear CLR 65 50     58%     30.14 30.14      
Apr 01 11:53 NE 11 10 Clear CLR 62 49     62%     30.15 30.15      
Apr 01 10:53 NE 10 10 Clear CLR 59 49     69%     30.15 30.14      
Apr 01 09:53 ENE 11 10 Clear CLR 57 47     69%     30.14 30.14      
Apr 01 08:53 ENE 15 10 Clear CLR 53 46     77%     30.13 30.13      
Apr 01 07:53 NE 14 9 Clear CLR 51 46     83%     30.12 30.12      
Apr 01 06:53 ENE 10 9 Clear CLR 49 47     93% 45   30.1 30.1      
Apr 01 05:53 ENE 8 10 Clear CLR 50 47     89% 47   30.08 30.07      
Apr 01 04:53 ENE 9 10 Clear CLR 51 47     86%     30.07 30.06      
Apr 01 03:53 ENE 7 10 Clear CLR 51 48     89%     30.05 30.04      
Apr 01 02:53 NE 7 10 Clear CLR 53 49     86%     30.04 30.03      
Apr 01 01:53 ENE 8 10 Clear CLR 54 50     86%     30.02 30.01      
Apr 01 00:53 NE 8 10 Clear CLR 55 50     83%     29.99 29.98      
Mar 31 23:53 ENE 9 10 Clear CLR 56 51     84%     29.98 29.97      
Mar 31 22:53 NE 7 10 Clear CLR 57 51     81%     29.97 29.96      
Mar 31 21:53 ENE 6 10 Clear CLR 60 51     72%     29.96 29.95      
Mar 31 20:53 NNE 6 10 Clear CLR 61 51     70%     29.94 29.93      
Mar 31 19:53 N 6 10 Clear CLR 63 51     65%     29.92 29.91      
Mar 31 18:53 N 5 10 Clear CLR 67 51     57%     29.9 29.89      
Mar 31 17:53 NNE 9 10 Clear CLR 69 51     53%     29.88 29.87      
Mar 31 16:53 3 10 Clear CLR 69 50     51%     29.88 29.87      
Mar 31 15:53 NW 6 10 Clear CLR 69 50     51%     29.87 29.87      
Mar 31 14:53 WNW 8 10 Clear CLR 68 49     50%     29.88 29.87      
Mar 31 13:53 6 10 Clear CLR 66 49     54%     29.89 29.88      
Mar 31 12:53 NW 8 10 Clear CLR 63 49     60%     29.91 29.9      
Mar 31 11:53 5 10 Clear CLR 62 50     65%     29.9 29.9      
Mar 31 10:53 NW 7 10 Clear CLR 59 48     67%     29.9 29.9      
Mar 31 09:53 WNW 7 10 Clear CLR 56 47     72%     29.88 29.88      
Mar 31 08:53 6 10 Clear CLR 54 47     77%     29.86 29.86      
Mar 31 06:53 Calm 10 Clear CLR 48 46     93%     29.82 29.81      
Mar 31 05:53 Calm 10 Clear CLR 49 45     86%     29.8 29.8      
Mar 31 04:53 3 10 Partly Cloudy SCT027 50 45     83% 49   29.78 29.77      
Mar 31 03:53 WNW 5 10 Cloudy OVC027 51 46     83%     29.77 29.76      
Mar 31 03:29 WNW 3 10 Mostly Cloudy BKN028 51 46     83%     29.77        
Mar 31 02:53 Calm 10 Clear CLR 50 46     86%     29.76 29.75      
Mar 31 01:53 Calm 10 Clear CLR 52 46     80%     29.75 29.74      
Mar 31 00:53 W 3 10 Mostly Clear FEW060 53 46     77%     29.76 29.75      
Mar 30 23:53 5 10 Mostly Clear FEW060 55 45     69%     29.75 29.74      
Mar 30 22:53 5 10 Mostly Cloudy BKN042 56 47     72%     29.74 29.73      
Mar 30 21:53 3 10 Mostly Cloudy BKN048 56 47     72%     29.73 29.72      
Mar 30 20:53 5 10 Clear   58 46     65%     29.7 29.7      
Mar 30 19:53 W 7 10 Clear CLR 59 46     62%     29.68 29.67      
Mar 30 18:53 W 9 10 Clear CLR 62 46     56%     29.66 29.66      
Mar 30 17:53 W 11 10 Clear   65 47     52%     29.64 29.63      
Mar 30 16:53 W 10 10 Clear CLR 70 49     47%     29.61 29.6      
Mar 30 15:53 WSW 18 10 Clear CLR 71 47     42%   70 29.61 29.6      
Mar 30 14:53 SW 18 10 Mostly Clear FEW085 72 50     46%   71 29.62 29.61      
Mar 30 13:53 SW 21 10 Mostly Cloudy and Windy SCT060 SCT070 BKN090 71 56     59%   71 29.64 29.62      
Mar 30 12:53 WSW 13 10 Cloudy FEW030 BKN037 OVC085 71 59     66%   71 29.63 29.62      
Mar 30 11:53 SSW 14 10 Clear   72 61     68%   72 29.63 29.62      
Mar 30 11:24 SSW 22 10 Mostly Cloudy and Windy SCT026 BKN032 70 61     73%     29.65        
Mar 30 10:53 SSW 18 10 Mostly Cloudy FEW020 BKN027 69 62     78%     29.66 29.65      
Mar 30 09:53 SSW 18 10 Mostly Cloudy BKN021 BKN110 68 62     81%     29.68 29.67      
Mar 30 09:19 SSW 18 10 Mostly Cloudy BKN019 BKN029 67 62     84%     29.69        
Mar 30 01:53 S 13 10 Clear CLR 66 60     81%     29.73 29.72      
Mar 30 00:53 SSW 16 10 Cloudy OVC100 69 59     70%     29.77 29.75 0   0
Mar 29 23:53   10 Mostly Clear FEW047 75 59     57%   75 29.74 29.72      
Mar 29 22:53 SE 14 10 Mostly Clear FEW080 72 58     61%   72 29.73 29.72      
Mar 29 21:53 SE 7 10 Mostly Cloudy BKN100 71 58     63%   71 29.77 29.76      
Mar 29 20:53 S 7 10 Clear CLR 70 59     68%     29.8 29.79      
Mar 29 19:53 S 13 10 Clear CLR 74 57     56%   74 29.8 29.78      
Mar 29 18:53 S 15 10 Clear CLR 77 57     50%   77 29.8 29.79      
Mar 29 17:53 SSW 13 10 Clear CLR 79 57     47%   79 29.79 29.78      
Mar 29 16:53 SSW 13 10 Clear CLR 79 57     47%   79 29.8 29.78      
Mar 29 15:53 S 22 10 Clear and Windy CLR 80 59     49%   81 29.79 29.78      
Mar 29 14:53 S 21 10 Clear and Windy CLR 81 60     49%   82 29.8 29.8      
Mar 29 13:53 S 20 10 Clear and Windy CLR 80 62     54%   81 29.85 29.84      
Mar 29 12:53 S 18 10 Clear CLR 77 62     60%   77 29.9 29.89      
Mar 29 11:53 SSE 23 10 Clear and Windy CLR 75 65     71%   76 29.92 29.91      
Mar 29 10:53 S 14 9 Partly Cloudy SCT020 SCT085 72 65     79%   73 29.97 29.96      
Mar 29 09:53 S 13 10 Mostly Cloudy SCT050 BKN060 BKN095 70 63     78%     29.97 29.96      
Mar 29 08:53 SSE 8 10 Mostly Cloudy FEW045 FEW065 BKN100 66 59     78%     29.96 29.95      
Mar 29 07:53 SE 7 10 Clear CLR 64 58     81%     29.92 29.91      
Mar 29 06:53 SE 10 10 Clear CLR 61 56     83%     29.89 29.88      
Mar 29 05:53 ESE 7 10 Mostly Clear FEW050 61 55     81%     29.9 29.88      
Mar 29 04:53 ESE 10 10 Mostly Clear FEW050 61 55     81%     29.89 29.88      
Mar 29 03:53 ESE 11 10 Clear CLR 61 55     81%     29.9 29.88      
Mar 29 02:53 E 11 10 Clear CLR 61 55     81%     29.92 29.91      
Mar 29 01:53 E 9 10 Clear CLR 61 55     81%     29.94 29.93      
Mar 29 00:53 ENE 7 10 Clear CLR 62 56     80%     29.95 29.94      
Mar 28 23:53 ENE 11 10 Clear CLR 63 56     78%     29.95 29.94      
Mar 28 22:53 ENE 14 10 Mostly Cloudy BKN070 65 57     76%     29.96 29.95      
Mar 28 21:53 NE 8 10 Clear CLR 64 57     78%     29.96 29.95      
Mar 28 20:53 NE 7 10 Clear CLR 64 58     81%     29.95 29.94      
Mar 28 19:53 NNE 9 10 Clear CLR 67 59     76%     29.93 29.93      
Mar 28 18:53 N 10 10 Clear CLR 71 58     63%   71 29.93 29.92      
Mar 28 17:53 NNE 10 10 Clear CLR 74 59     60%   74 29.92 29.91      
Mar 28 16:53 NNE 11 10 Clear CLR 75 60     60%   75 29.93 29.91      
Mar 28 15:53 NNE 13 10 Clear CLR 75 60     60%   75 29.94 29.93      
Mar 28 14:53 NNE 9 10 Clear CLR 75 61     62%   75 29.96 29.95      
Mar 28 13:53 NNE 10 10 Clear CLR 74 60     62%   74 29.98 29.97      
Mar 28 12:53 ENE 6 10 Clear CLR 71 59     66%   71 30 29.99      
Mar 28 11:53 NE 8 10 Clear CLR 69 59     70%     30.01 30.01      
Mar 28 10:53 NNE 8 10 Mostly Clear FEW049 67 59     76%     30.02 30.01